TimeCST,TemperatureF,Dew PointF,Humidity,Sea Level PressureIn,VisibilityMPH,Wind Direction,Wind SpeedMPH,Gust SpeedMPH,PrecipitationIn,Events,Conditions,WindDirDegrees,DateUTC
12:15 AM,46.4,37.4,71,30.01,10.0,Calm,Calm,-,N/A,,Clear,0,2014-02-02 06:15:00
12:35 AM,46.4,41.0,81,30.01,10.0,Calm,Calm,-,N/A,,Clear,0,2014-02-02 06:35:00
12:55 AM,48.2,41.0,76,30.01,10.0,SE,5.8,-,N/A,,Clear,130,2014-02-02 06:55:00
1:15 AM,50.0,41.0,71,30.02,10.0,SE,4.6,-,N/A,,Clear,140,2014-02-02 07:15:00
1:35 AM,50.0,41.0,71,30.02,10.0,Calm,Calm,-,N/A,,Clear,0,2014-02-02 07:35:00
1:55 AM,50.0,41.0,71,30.01,10.0,ESE,3.5,-,N/A,,Mostly Cloudy,120,2014-02-02 07:55:00
2:15 AM,46.4,41.0,81,30.00,10.0,Calm,Calm,-,N/A,,Mostly Cloudy,0,2014-02-02 08:15:00
2:35 AM,50.0,42.8,76,30.01,10.0,Calm,Calm,-,N/A,,Overcast,0,2014-02-02 08:35:00
2:55 AM,50.0,42.8,76,30.01,10.0,Calm,Calm,-,N/A,,Overcast,0,2014-02-02 08:55:00
3:15 AM,50.0,42.8,76,30.01,10.0,Calm,Calm,-,N/A,,Overcast,0,2014-02-02 09:15:00
3:35 AM,51.8,44.6,76,30.01,10.0,South,3.5,-,N/A,,Overcast,180,2014-02-02 09:35:00
3:55 AM,53.6,44.6,72,30.00,10.0,East,3.5,-,N/A,,Overcast,100,2014-02-02 09:55:00
4:15 AM,53.6,44.6,72,30.01,10.0,SSE,4.6,-,N/A,,Overcast,160,2014-02-02 10:15:00
4:35 AM,53.6,46.4,77,30.01,10.0,South,8.1,-,N/A,,Overcast,190,2014-02-02 10:35:00
4:55 AM,53.6,46.4,77,30.01,10.0,South,9.2,-,N/A,,Overcast,180,2014-02-02 10:55:00
5:15 AM,53.6,48.2,82,30.01,10.0,South,9.2,-,N/A,,Overcast,170,2014-02-02 11:15:00
5:35 AM,53.6,48.2,82,30.01,10.0,South,8.1,-,N/A,,Overcast,170,2014-02-02 11:35:00
5:55 AM,53.6,50.0,88,30.01,10.0,South,8.1,-,N/A,,Overcast,170,2014-02-02 11:55:00
6:15 AM,55.4,50.0,82,30.01,10.0,South,10.4,-,N/A,,Overcast,170,2014-02-02 12:15:00
6:35 AM,55.4,50.0,82,30.02,10.0,South,5.8,-,N/A,,Overcast,180,2014-02-02 12:35:00
6:55 AM,55.4,50.0,82,30.04,7.0,SSW,8.1,-,N/A,,Overcast,200,2014-02-02 12:55:00
7:15 AM,55.4,50.0,82,30.04,7.0,South,10.4,-,N/A,,Overcast,190,2014-02-02 13:15:00
7:35 AM,55.4,50.0,82,30.04,7.0,South,9.2,16.1,N/A,,Overcast,190,2014-02-02 13:35:00
7:55 AM,55.4,50.0,82,30.04,7.0,South,6.9,-,N/A,,Overcast,180,2014-02-02 13:55:00
8:15 AM,55.4,50.0,82,30.05,7.0,SSW,6.9,-,N/A,,Overcast,200,2014-02-02 14:15:00
8:35 AM,55.4,50.0,82,30.06,7.0,South,6.9,-,N/A,,Overcast,190,2014-02-02 14:35:00
8:55 AM,55.4,50.0,82,30.06,10.0,South,9.2,-,N/A,,Overcast,180,2014-02-02 14:55:00
9:15 AM,57.2,50.0,77,30.07,10.0,South,9.2,-,N/A,,Overcast,190,2014-02-02 15:15:00
9:35 AM,57.2,50.0,77,30.07,10.0,SSW,8.1,-,N/A,,Overcast,200,2014-02-02 15:35:00
9:55 AM,57.2,50.0,77,30.07,10.0,SSW,10.4,-,N/A,,Overcast,200,2014-02-02 15:55:00
10:15 AM,55.4,51.8,88,30.07,4.0,SSW,6.9,-,N/A,Rain,Rain,210,2014-02-02 16:15:00
10:35 AM,55.4,51.8,88,30.07,4.0,Calm,Calm,-,N/A,,Light Drizzle,0,2014-02-02 16:35:00
10:55 AM,55.4,51.8,88,30.06,5.0,Calm,Calm,-,N/A,Rain,Heavy Rain,0,2014-02-02 16:55:00
11:15 AM,55.4,51.8,88,30.06,4.0,Calm,Calm,-,N/A,,Light Drizzle,0,2014-02-02 17:15:00
11:35 AM,55.4,51.8,88,30.05,2.5,Calm,Calm,-,N/A,Rain,Heavy Rain,0,2014-02-02 17:35:00
11:55 AM,55.4,53.6,94,30.03,2.5,Calm,Calm,-,N/A,,Heavy Drizzle,0,2014-02-02 17:55:00
12:15 PM,55.4,53.6,94,30.02,5.0,Calm,Calm,-,N/A,,Overcast,0,2014-02-02 18:15:00
12:35 PM,55.4,53.6,94,30.00,2.5,Calm,Calm,-,0.01,,Drizzle,0,2014-02-02 18:35:00
12:55 PM,55.4,51.8,88,30.00,5.0,South,3.5,-,0.01,,Overcast,190,2014-02-02 18:55:00
1:15 PM,55.4,51.8,88,29.98,3.0,Calm,Calm,-,N/A,Rain,Rain,0,2014-02-02 19:15:00
1:35 PM,55.4,51.8,88,29.98,2.0,Calm,Calm,-,0.02,Rain,Rain,0,2014-02-02 19:35:00
1:55 PM,55.4,53.6,94,29.96,1.5,Calm,Calm,-,0.03,Rain,Rain,0,2014-02-02 19:55:00
2:15 PM,55.4,53.6,94,29.95,1.2,Calm,Calm,-,0.03,Rain,Rain,0,2014-02-02 20:15:00
2:35 PM,55.4,51.8,88,29.95,2.0,ESE,3.5,-,0.06,Rain,Rain,110,2014-02-02 20:35:00
2:55 PM,48.2,44.6,87,29.96,5.0,NNW,5.8,9.2,0.10,Rain,Heavy Rain,340,2014-02-02 20:55:00
3:15 PM,46.4,44.6,93,29.96,5.0,North,10.4,-,0.03,Rain,Rain,10,2014-02-02 21:15:00
3:35 PM,44.6,41.0,87,29.95,4.0,North,8.1,-,0.06,Rain,Heavy Rain,10,2014-02-02 21:35:00
3:55 PM,42.8,41.0,93,29.96,1.8,NNE,8.1,-,0.12,Rain,Heavy Rain,20,2014-02-02 21:55:00
4:15 PM,41.0,37.4,87,29.96,7.0,North,8.1,16.1,0.01,Rain,Rain,10,2014-02-02 22:15:00
4:35 PM,41.0,37.4,87,29.95,10.0,NNE,5.8,-,0.01,,Drizzle,30,2014-02-02 22:35:00
4:55 PM,41.0,37.4,87,29.95,7.0,North,10.4,-,0.01,Rain,Rain,360,2014-02-02 22:55:00
5:15 PM,39.2,35.6,87,29.96,3.0,North,15.0,19.6,0.02,Rain,Light Rain,360,2014-02-02 23:15:00
5:35 PM,39.2,35.6,87,29.97,10.0,North,15.0,18.4,0.02,Rain,Light Rain,360,2014-02-02 23:35:00
5:55 PM,37.4,35.6,93,29.98,2.5,North,9.2,-,0.06,Rain,Light Rain,360,2014-02-02 23:55:00
6:15 PM,37.4,33.8,87,29.98,4.0,North,12.7,-,N/A,Rain,Light Rain,10,2014-02-03 00:15:00
6:35 PM,37.4,33.8,87,29.98,7.0,North,10.4,-,0.01,Rain,Light Rain,10,2014-02-03 00:35:00
6:55 PM,37.4,33.8,87,29.99,10.0,North,8.1,-,0.01,Rain,Light Rain,360,2014-02-03 00:55:00
7:15 PM,37.4,33.8,87,29.99,10.0,North,12.7,-,N/A,,Overcast,350,2014-02-03 01:15:00
7:35 PM,37.4,33.8,87,29.99,7.0,North,15.0,18.4,N/A,,Light Drizzle,350,2014-02-03 01:35:00
7:55 PM,37.4,33.8,87,29.97,10.0,North,10.4,-,N/A,Rain,Light Rain,360,2014-02-03 01:55:00
8:15 PM,37.4,33.8,87,29.97,10.0,NNE,11.5,-,N/A,,Light Drizzle,20,2014-02-03 02:15:00
8:35 PM,37.4,33.8,87,29.96,10.0,NNE,8.1,-,N/A,Rain,Light Rain,20,2014-02-03 02:35:00
8:55 PM,37.4,33.8,87,29.96,7.0,NNE,10.4,-,0.01,Rain,Light Rain,20,2014-02-03 02:55:00
9:15 PM,37.4,33.8,87,29.95,4.0,NNE,5.8,-,0.01,Rain,Heavy Rain,30,2014-02-03 03:15:00
9:35 PM,37.4,33.8,87,29.94,3.0,North,10.4,17.3,0.04,Rain,Heavy Rain,10,2014-02-03 03:35:00
9:55 PM,37.4,33.8,87,29.90,3.0,NNE,9.2,17.3,0.07,Rain,Rain,30,2014-02-03 03:55:00
10:15 PM,37.4,33.8,87,29.93,4.0,North,12.7,-,0.03,Rain,Heavy Rain,350,2014-02-03 04:15:00
10:35 PM,37.4,33.8,87,29.92,2.5,NNW,16.1,-,0.07,Snow,Light Snow,330,2014-02-03 04:35:00
10:55 PM,35.6,33.8,93,29.96,2.0,NNW,16.1,-,0.09,Rain,Light Rain,330,2014-02-03 04:55:00
11:15 PM,35.6,32.0,87,29.99,5.0,NNW,18.4,23.0,0.02,Rain,Heavy Rain,330,2014-02-03 05:15:00
11:35 PM,35.6,32.0,87,29.96,4.0,NNE,9.2,17.3,0.11,Snow,Light Snow,30,2014-02-03 05:35:00
11:55 PM,35.6,32.0,87,29.92,3.0,NNE,3.5,16.1,0.14,Rain,Light Rain,20,2014-02-03 05:55:00